This is the latest recevied weather packets stored in our database for station/object VE1UHF-4. If no packets are shown the sender has not sent any weather packets the latest 10 day(s).
| Time | Temp. | Humidity | Pressure | Rain* | Wind** | Luminosity | Snow |
|---|---|---|---|---|---|---|---|
| 1777857450 | 6.11° C | 82% | 981.6 hPa | 0 mm | - | - | - |
| 1777856544 | 6.11° C | 82% | 982.2 hPa | 0 mm | - | - | - |
| 1777855643 | 6.11° C | 82% | 982.7 hPa | 0 mm | - | - | - |
| 1777852941 | 6.67° C | 80% | 983 hPa | 0 mm | - | - | - |
| 1777852041 | 6.67° C | 80% | 983.6 hPa | 0 mm | - | - | - |
| 1777850244 | 6.67° C | 78% | 984.9 hPa | 0 mm | - | - | - |
| 1777849340 | 7.22° C | 78% | 985.9 hPa | 0 mm | - | - | - |
| 1777848439 | 7.22° C | 78% | 986.4 hPa | 0 mm | - | - | - |
| 1777847541 | 7.78° C | 78% | 987.2 hPa | 0 mm | - | - | - |
| 1777846638 | 7.78° C | 78% | 987.9 hPa | 0 mm | - | - | - |
| 1777845737 | 8.33° C | 78% | 988.6 hPa | 0 mm | - | - | - |
| 1777844837 | 8.89° C | 78% | 989.8 hPa | 0 mm | - | - | - |
| 1777842135 | 9.44° C | 79% | 991.7 hPa | 0 mm | - | - | - |
| 1777841234 | 10° C | 78% | 992.2 hPa | 0 mm | - | - | - |
| 1777840334 | 10° C | 79% | 992.7 hPa | 0 mm | - | - | - |
| 1777838534 | 10.56° C | 79% | 993.8 hPa | 0 mm | - | - | - |
| 1777837632 | 10.56° C | 79% | 993.9 hPa | 0 mm | - | - | - |
| 1777836732 | 10.56° C | 79% | 994.4 hPa | 0 mm | - | - | - |
| 1777835831 | 11.11° C | 79% | 994.6 hPa | 0 mm | - | - | - |
| 1777834931 | 11.11° C | 78% | 995.5 hPa | 0 mm | - | - | - |
| 1777834030 | 11.67° C | 79% | 995.1 hPa | 0 mm | - | - | - |
| 1777833130 | 11.67° C | 78% | 995.5 hPa | 0 mm | - | - | - |
| 1777832234 | 11.67° C | 78% | 996.7 hPa | 0 mm | - | - | - |
| 1777831328 | 12.22° C | 78% | 997.2 hPa | 0 mm | - | - | - |
| 1777830428 | 12.22° C | 79% | 997.6 hPa | 0 mm | - | - | - |
* Rain since midnight (hover to see other rain measurements)
** Current wind speed in m/s (hover to see current wind gust speed)